Year,Month,Day,Hour,Minute,Value (Times are PST for temperature in C)
2021,08,14,00,00,18.70
2021,08,14,00,01,18.70
2021,08,14,00,02,18.60
2021,08,14,00,03,18.60
2021,08,14,00,04,18.60
2021,08,14,00,05,18.60
2021,08,14,00,06,18.60
2021,08,14,00,07,18.60
2021,08,14,00,08,18.60
2021,08,14,00,09,18.60
2021,08,14,00,10,18.60
2021,08,14,00,11,18.60
2021,08,14,00,12,18.60
2021,08,14,00,13,18.60
2021,08,14,00,14,18.50
2021,08,14,00,15,18.50
2021,08,14,00,16,18.50
2021,08,14,00,17,18.50
2021,08,14,00,18,18.40
2021,08,14,00,19,18.40
2021,08,14,00,20,18.40
2021,08,14,00,21,18.40
2021,08,14,00,22,18.40
2021,08,14,00,23,18.40
2021,08,14,00,24,18.40
2021,08,14,00,25,18.40
2021,08,14,00,26,18.40
2021,08,14,00,27,18.40
2021,08,14,00,28,18.40
2021,08,14,00,29,18.40
2021,08,14,00,30,18.40
2021,08,14,00,31,18.30
2021,08,14,00,32,18.30
2021,08,14,00,33,18.30
2021,08,14,00,34,18.30
2021,08,14,00,35,18.30
2021,08,14,00,36,18.30
2021,08,14,00,37,18.30
2021,08,14,00,38,18.30
2021,08,14,00,39,18.30
2021,08,14,00,40,18.30
2021,08,14,00,41,18.30
2021,08,14,00,42,18.30
2021,08,14,00,43,18.20
2021,08,14,00,44,18.20
2021,08,14,00,45,18.20
2021,08,14,00,46,18.20
2021,08,14,00,47,18.20
2021,08,14,00,48,18.20
2021,08,14,00,49,18.10
2021,08,14,00,50,18.10
2021,08,14,00,51,18.10
2021,08,14,00,52,18.10
2021,08,14,00,53,18.10
2021,08,14,00,54,18.10
2021,08,14,00,55,18.10
2021,08,14,00,56,18.00
2021,08,14,00,57,18.00
2021,08,14,00,58,18.00
2021,08,14,00,59,18.00
2021,08,14,01,00,17.90
2021,08,14,01,01,17.90
2021,08,14,01,02,17.90
2021,08,14,01,03,17.90
2021,08,14,01,04,17.90
2021,08,14,01,05,17.80
2021,08,14,01,06,17.80
2021,08,14,01,07,17.80
2021,08,14,01,08,17.80
2021,08,14,01,09,17.80
2021,08,14,01,10,17.70
2021,08,14,01,11,17.70
2021,08,14,01,12,17.70
2021,08,14,01,13,17.70
2021,08,14,01,14,17.70
2021,08,14,01,15,17.70
2021,08,14,01,16,17.60
2021,08,14,01,17,17.60
2021,08,14,01,18,17.60
2021,08,14,01,19,17.60
2021,08,14,01,20,17.60
2021,08,14,01,21,17.60
2021,08,14,01,22,17.60
2021,08,14,01,23,17.50
2021,08,14,01,24,17.50
2021,08,14,01,25,17.50
2021,08,14,01,26,17.40
2021,08,14,01,27,17.40
2021,08,14,01,28,17.40
2021,08,14,01,29,17.40
2021,08,14,01,30,17.40
2021,08,14,01,31,17.40
2021,08,14,01,32,17.40
2021,08,14,01,33,17.40
2021,08,14,01,34,17.40
2021,08,14,01,35,17.40
2021,08,14,01,36,17.40
2021,08,14,01,37,17.40
2021,08,14,01,38,17.40
2021,08,14,01,39,17.40
2021,08,14,01,40,17.40
2021,08,14,01,41,17.40
2021,08,14,01,42,17.40
2021,08,14,01,43,17.40
2021,08,14,01,44,17.40
2021,08,14,01,45,17.40
2021,08,14,01,46,17.40
2021,08,14,01,47,17.40
2021,08,14,01,48,17.40
2021,08,14,01,49,17.50
2021,08,14,01,50,17.50
2021,08,14,01,51,17.50
2021,08,14,01,52,17.50
2021,08,14,01,53,17.40
2021,08,14,01,54,17.40
2021,08,14,01,55,17.40
2021,08,14,01,56,17.40
2021,08,14,01,57,17.40
2021,08,14,01,58,17.40
2021,08,14,01,59,17.40
2021,08,14,02,00,17.40
2021,08,14,02,01,17.40
2021,08,14,02,02,17.40
2021,08,14,02,03,17.30
2021,08,14,02,04,17.30
2021,08,14,02,05,17.30
2021,08,14,02,06,17.30
2021,08,14,02,07,17.30
2021,08,14,02,08,17.20
2021,08,14,02,09,17.20
2021,08,14,02,10,17.20
2021,08,14,02,11,17.10
2021,08,14,02,12,17.00
2021,08,14,02,13,17.00
2021,08,14,02,14,16.90
2021,08,14,02,15,16.80
2021,08,14,02,16,16.70
2021,08,14,02,17,16.60
2021,08,14,02,18,16.50
2021,08,14,02,19,16.40
2021,08,14,02,20,16.40
2021,08,14,02,21,16.30
2021,08,14,02,22,16.30
2021,08,14,02,23,16.20
2021,08,14,02,24,16.20
2021,08,14,02,25,16.10
2021,08,14,02,26,16.10
2021,08,14,02,27,16.00
2021,08,14,02,28,15.90
2021,08,14,02,29,15.90
2021,08,14,02,30,15.80
2021,08,14,02,31,15.80
2021,08,14,02,32,15.70
2021,08,14,02,33,15.70
2021,08,14,02,34,15.60
2021,08,14,02,35,15.60
2021,08,14,02,36,15.50
2021,08,14,02,37,15.50
2021,08,14,02,38,15.40
2021,08,14,02,39,15.40
2021,08,14,02,40,15.40
2021,08,14,02,41,15.30
2021,08,14,02,42,15.30
2021,08,14,02,43,15.30
2021,08,14,02,44,15.20
2021,08,14,02,45,15.20
2021,08,14,02,46,15.20
2021,08,14,02,47,15.20
2021,08,14,02,48,15.10
2021,08,14,02,49,15.10
2021,08,14,02,50,15.10
2021,08,14,02,51,15.10
2021,08,14,02,52,15.10
2021,08,14,02,53,15.00
2021,08,14,02,54,15.00
2021,08,14,02,55,15.00
2021,08,14,02,56,15.00
2021,08,14,02,57,15.00
2021,08,14,02,58,14.90
2021,08,14,02,59,14.90
2021,08,14,03,00,14.90
2021,08,14,03,01,14.90
2021,08,14,03,02,14.90
2021,08,14,03,03,14.90
2021,08,14,03,04,14.90
2021,08,14,03,05,14.90
2021,08,14,03,06,14.90
2021,08,14,03,07,14.90
2021,08,14,03,08,14.90
2021,08,14,03,09,14.90
2021,08,14,03,10,14.90
2021,08,14,03,11,14.90
2021,08,14,03,12,14.90
2021,08,14,03,13,14.90
2021,08,14,03,14,14.90
2021,08,14,03,15,14.90
2021,08,14,03,16,14.90
2021,08,14,03,17,14.90
2021,08,14,03,18,14.90
2021,08,14,03,19,14.80
2021,08,14,03,20,14.80
2021,08,14,03,21,14.80
2021,08,14,03,22,14.80
2021,08,14,03,23,14.70
2021,08,14,03,24,14.70
2021,08,14,03,25,14.70
2021,08,14,03,26,14.70
2021,08,14,03,27,14.60
2021,08,14,03,28,14.60
2021,08,14,03,29,14.60
2021,08,14,03,30,14.60
2021,08,14,03,31,14.60
2021,08,14,03,32,14.50
2021,08,14,03,33,14.50
2021,08,14,03,34,14.50
2021,08,14,03,35,14.50
2021,08,14,03,36,14.50
2021,08,14,03,37,14.50
2021,08,14,03,38,14.40
2021,08,14,03,39,14.40
2021,08,14,03,40,14.40
2021,08,14,03,41,14.40
2021,08,14,03,42,14.40
2021,08,14,03,43,14.40
2021,08,14,03,44,14.40
2021,08,14,03,45,14.40
2021,08,14,03,46,14.40
2021,08,14,03,47,14.40
2021,08,14,03,48,14.40
2021,08,14,03,49,14.40
2021,08,14,03,50,14.40
2021,08,14,03,51,14.40
2021,08,14,03,52,14.40
2021,08,14,03,53,14.40
2021,08,14,03,54,14.40
2021,08,14,03,55,14.40
2021,08,14,03,56,14.40
2021,08,14,03,57,14.40
2021,08,14,03,58,14.40
2021,08,14,03,59,14.30
2021,08,14,04,00,14.30
2021,08,14,04,01,14.30
2021,08,14,04,02,14.30
2021,08,14,04,03,14.20
2021,08,14,04,04,14.20
2021,08,14,04,05,14.10
2021,08,14,04,06,14.10
2021,08,14,04,07,14.10
2021,08,14,04,08,14.00
2021,08,14,04,09,14.00
2021,08,14,04,10,14.00
2021,08,14,04,11,14.00
2021,08,14,04,12,13.90
2021,08,14,04,13,13.90
2021,08,14,04,14,13.90
2021,08,14,04,15,13.90
2021,08,14,04,16,13.90
2021,08,14,04,17,13.90
2021,08,14,04,18,13.90
2021,08,14,04,19,13.90
2021,08,14,04,20,13.90
2021,08,14,04,21,13.90
2021,08,14,04,22,13.90
2021,08,14,04,23,13.90
2021,08,14,04,24,13.90
2021,08,14,04,25,13.90
2021,08,14,04,26,13.90
2021,08,14,04,27,13.90
2021,08,14,04,28,13.90
2021,08,14,04,29,13.90
2021,08,14,04,30,13.90
2021,08,14,04,31,13.90
2021,08,14,04,32,13.90
2021,08,14,04,33,13.90
2021,08,14,04,34,14.00
2021,08,14,04,35,13.90
2021,08,14,04,36,14.00
2021,08,14,04,37,14.00
2021,08,14,04,38,14.00
2021,08,14,04,39,14.00
2021,08,14,04,40,14.00
2021,08,14,04,41,14.00
2021,08,14,04,42,14.00
2021,08,14,04,43,14.00
2021,08,14,04,44,14.00
2021,08,14,04,45,14.00
2021,08,14,04,46,14.00
2021,08,14,04,47,14.00
2021,08,14,04,48,14.00
2021,08,14,04,49,14.00
2021,08,14,04,50,14.00
2021,08,14,04,51,14.00
2021,08,14,04,52,14.00
2021,08,14,04,53,14.00
2021,08,14,04,54,14.00
2021,08,14,04,55,14.00
2021,08,14,04,56,14.00
2021,08,14,04,57,14.00
2021,08,14,04,58,14.00
2021,08,14,04,59,14.00
2021,08,14,05,00,14.10
2021,08,14,05,01,14.10
2021,08,14,05,02,14.10
2021,08,14,05,03,14.10
2021,08,14,05,04,14.10
2021,08,14,05,05,14.10
2021,08,14,05,06,14.10
2021,08,14,05,07,14.10
2021,08,14,05,08,14.10
2021,08,14,05,09,14.10
2021,08,14,05,10,14.10
2021,08,14,05,11,14.10
2021,08,14,05,12,14.10
2021,08,14,05,13,14.10
2021,08,14,05,14,14.10
2021,08,14,05,15,14.10
2021,08,14,05,16,14.10
2021,08,14,05,17,14.10
2021,08,14,05,18,14.10
2021,08,14,05,19,14.10
2021,08,14,05,20,14.10
2021,08,14,05,21,14.10
2021,08,14,05,22,14.10
2021,08,14,05,23,14.10
2021,08,14,05,24,14.10
2021,08,14,05,25,14.10
2021,08,14,05,26,14.10
2021,08,14,05,27,14.10
2021,08,14,05,28,14.10
2021,08,14,05,29,14.10
2021,08,14,05,30,14.10
2021,08,14,05,31,14.00
2021,08,14,05,32,14.00
2021,08,14,05,33,14.00
2021,08,14,05,34,14.00
2021,08,14,05,35,14.00
2021,08,14,05,36,14.00
2021,08,14,05,37,13.90
2021,08,14,05,38,13.90
2021,08,14,05,39,13.90
2021,08,14,05,40,13.90
2021,08,14,05,41,13.90
2021,08,14,05,42,13.90
2021,08,14,05,43,13.90
2021,08,14,05,44,13.90
2021,08,14,05,45,13.90
2021,08,14,05,46,13.90
2021,08,14,05,47,13.90
2021,08,14,05,48,13.80
2021,08,14,05,49,13.80
2021,08,14,05,50,13.80
2021,08,14,05,51,13.80
2021,08,14,05,52,13.80
2021,08,14,05,53,13.80
2021,08,14,05,54,13.80
2021,08,14,05,55,13.80
2021,08,14,05,56,13.80
2021,08,14,05,57,13.80
2021,08,14,05,58,13.80
2021,08,14,05,59,13.80
2021,08,14,06,00,13.80
2021,08,14,06,01,13.80
2021,08,14,06,02,13.80
2021,08,14,06,03,13.70
2021,08,14,06,04,13.70
2021,08,14,06,05,13.70
2021,08,14,06,06,13.70
2021,08,14,06,07,13.70
2021,08,14,06,08,13.60
2021,08,14,06,09,13.60
2021,08,14,06,10,13.60
2021,08,14,06,11,13.60
2021,08,14,06,12,13.60
2021,08,14,06,13,13.60
2021,08,14,06,14,13.50
2021,08,14,06,15,13.50
2021,08,14,06,16,13.50
2021,08,14,06,17,13.50
2021,08,14,06,18,13.50
2021,08,14,06,19,13.50
2021,08,14,06,20,13.40
2021,08,14,06,21,13.50
2021,08,14,06,22,13.40
2021,08,14,06,23,13.40
2021,08,14,06,24,13.40
2021,08,14,06,25,13.40
2021,08,14,06,26,13.40
2021,08,14,06,27,13.40
2021,08,14,06,28,13.40
2021,08,14,06,29,13.40
2021,08,14,06,30,13.40
2021,08,14,06,31,13.40
2021,08,14,06,32,13.40
2021,08,14,06,33,13.50
2021,08,14,06,34,13.50
2021,08,14,06,35,13.50
2021,08,14,06,36,13.50
2021,08,14,06,37,13.60
2021,08,14,06,38,13.60
2021,08,14,06,39,13.60
2021,08,14,06,40,13.60
2021,08,14,06,41,13.60
2021,08,14,06,42,13.60
2021,08,14,06,43,13.60
2021,08,14,06,44,13.60
2021,08,14,06,45,13.70
2021,08,14,06,46,13.70
2021,08,14,06,47,13.70
2021,08,14,06,48,13.70
2021,08,14,06,49,13.70
2021,08,14,06,50,13.70
2021,08,14,06,51,13.70
2021,08,14,06,52,13.70
2021,08,14,06,53,13.80
2021,08,14,06,54,13.80
2021,08,14,06,55,13.80
2021,08,14,06,56,13.80
2021,08,14,06,57,13.80
2021,08,14,06,58,13.80
2021,08,14,06,59,13.80
2021,08,14,07,00,13.80
2021,08,14,07,01,13.80
2021,08,14,07,02,13.80
2021,08,14,07,03,13.80
2021,08,14,07,04,13.90
2021,08,14,07,05,13.90
2021,08,14,07,06,13.90
2021,08,14,07,07,13.90
2021,08,14,07,08,13.90
2021,08,14,07,09,13.90
2021,08,14,07,10,14.00
2021,08,14,07,11,14.00
2021,08,14,07,12,14.00
2021,08,14,07,13,14.00
2021,08,14,07,14,14.10
2021,08,14,07,15,14.10
2021,08,14,07,16,14.10
2021,08,14,07,17,14.10
2021,08,14,07,18,14.10
2021,08,14,07,19,14.20
2021,08,14,07,20,14.20
2021,08,14,07,21,14.20
2021,08,14,07,22,14.20
2021,08,14,07,23,14.30
2021,08,14,07,24,14.30
2021,08,14,07,25,14.30
2021,08,14,07,26,14.30
2021,08,14,07,27,14.30
2021,08,14,07,28,14.40
2021,08,14,07,29,14.40
2021,08,14,07,30,14.40
2021,08,14,07,31,14.40
2021,08,14,07,32,14.40
2021,08,14,07,33,14.40
2021,08,14,07,34,14.40
2021,08,14,07,35,14.40
2021,08,14,07,36,14.50
2021,08,14,07,37,14.50
2021,08,14,07,38,14.50
2021,08,14,07,39,14.50
2021,08,14,07,40,14.50
2021,08,14,07,41,14.50
2021,08,14,07,42,14.50
2021,08,14,07,43,14.50
2021,08,14,07,44,14.40
2021,08,14,07,45,14.40
2021,08,14,07,46,14.40
2021,08,14,07,47,14.40
2021,08,14,07,48,14.40
2021,08,14,07,49,14.40
2021,08,14,07,50,14.40
2021,08,14,07,51,14.40
2021,08,14,07,52,14.40
2021,08,14,07,53,14.40
2021,08,14,07,54,14.50
2021,08,14,07,55,14.50
2021,08,14,07,56,14.50
2021,08,14,07,57,14.50
2021,08,14,07,58,14.50
2021,08,14,07,59,14.50
2021,08,14,08,00,14.60
2021,08,14,08,01,14.60
2021,08,14,08,02,14.60
2021,08,14,08,03,14.60
2021,08,14,08,04,14.60
2021,08,14,08,05,14.60
2021,08,14,08,06,14.60
2021,08,14,08,07,14.60
2021,08,14,08,08,14.60
2021,08,14,08,09,14.60
2021,08,14,08,10,14.60
2021,08,14,08,11,14.60
2021,08,14,08,12,14.60
2021,08,14,08,13,14.60
2021,08,14,08,14,14.70
2021,08,14,08,15,14.70
2021,08,14,08,16,14.70
2021,08,14,08,17,14.70
2021,08,14,08,18,14.70
2021,08,14,08,19,14.70
2021,08,14,08,20,14.70
2021,08,14,08,21,14.80
2021,08,14,08,22,14.80
2021,08,14,08,23,14.80
2021,08,14,08,24,14.80
2021,08,14,08,25,14.90
2021,08,14,08,26,14.90
2021,08,14,08,27,14.90
2021,08,14,08,28,15.00
2021,08,14,08,29,15.00
2021,08,14,08,30,15.00
2021,08,14,08,31,15.10
2021,08,14,08,32,15.10
2021,08,14,08,33,15.20
2021,08,14,08,34,15.20
2021,08,14,08,35,15.20
2021,08,14,08,36,15.30
2021,08,14,08,37,15.30
2021,08,14,08,38,15.30
2021,08,14,08,39,15.40
2021,08,14,08,40,15.40
2021,08,14,08,41,15.40
2021,08,14,08,42,15.40
2021,08,14,08,43,15.50
2021,08,14,08,44,15.50
2021,08,14,08,45,15.60
2021,08,14,08,46,15.60
2021,08,14,08,47,15.60
2021,08,14,08,48,15.60
2021,08,14,08,49,15.60
2021,08,14,08,50,15.70
2021,08,14,08,51,15.70
2021,08,14,08,52,15.70
2021,08,14,08,53,15.80
2021,08,14,08,54,15.80
2021,08,14,08,55,15.80
2021,08,14,08,56,15.90
2021,08,14,08,57,15.90
2021,08,14,08,58,15.90
2021,08,14,08,59,16.00
2021,08,14,09,00,16.00
2021,08,14,09,01,16.10
2021,08,14,09,02,16.10
2021,08,14,09,03,16.10
2021,08,14,09,04,16.20
2021,08,14,09,05,16.20
2021,08,14,09,06,16.30
2021,08,14,09,07,16.30
2021,08,14,09,08,16.40
2021,08,14,09,09,16.50
2021,08,14,09,10,16.60
2021,08,14,09,11,16.70
2021,08,14,09,12,16.70
2021,08,14,09,13,16.80
2021,08,14,09,14,16.80
2021,08,14,09,15,16.90
2021,08,14,09,16,17.00
2021,08,14,09,17,17.10
2021,08,14,09,18,17.10
2021,08,14,09,19,17.20
2021,08,14,09,20,17.30
2021,08,14,09,21,17.40
2021,08,14,09,22,17.50
2021,08,14,09,23,17.50
2021,08,14,09,24,17.60
2021,08,14,09,25,17.70
2021,08,14,09,26,17.80
2021,08,14,09,27,17.80
2021,08,14,09,28,17.90
2021,08,14,09,29,17.90
2021,08,14,09,30,18.00
2021,08,14,09,31,18.00
2021,08,14,09,32,18.10
2021,08,14,09,33,18.10
2021,08,14,09,34,18.20
2021,08,14,09,35,18.30
2021,08,14,09,36,18.30
2021,08,14,09,37,18.40
2021,08,14,09,38,18.50
2021,08,14,09,39,18.60
2021,08,14,09,40,18.70
2021,08,14,09,41,18.70
2021,08,14,09,42,18.80
2021,08,14,09,43,18.90
2021,08,14,09,44,19.00
2021,08,14,09,45,19.10
2021,08,14,09,46,19.10
2021,08,14,09,47,19.20
2021,08,14,09,48,19.20
2021,08,14,09,49,19.30
2021,08,14,09,50,19.40
2021,08,14,09,51,19.50
2021,08,14,09,52,19.60
2021,08,14,09,53,19.70
2021,08,14,09,54,19.80
2021,08,14,09,55,19.80
2021,08,14,09,56,19.90
2021,08,14,09,57,19.90
2021,08,14,09,58,19.90
2021,08,14,09,59,19.90
2021,08,14,10,00,19.90
2021,08,14,10,01,19.90
2021,08,14,10,02,19.90
2021,08,14,10,03,20.00
2021,08,14,10,04,20.10
2021,08,14,10,05,20.10
2021,08,14,10,06,20.20
2021,08,14,10,07,20.30
2021,08,14,10,08,20.40
2021,08,14,10,09,20.50
2021,08,14,10,10,20.60
2021,08,14,10,11,20.70
2021,08,14,10,12,20.80
2021,08,14,10,13,20.80
2021,08,14,10,14,20.80
2021,08,14,10,15,20.90
2021,08,14,10,16,20.90
2021,08,14,10,17,21.00
2021,08,14,10,18,21.00
2021,08,14,10,19,21.10
2021,08,14,10,20,21.10
2021,08,14,10,21,21.00
2021,08,14,10,22,21.00
2021,08,14,10,23,21.00
2021,08,14,10,24,21.10
2021,08,14,10,25,21.10
2021,08,14,10,26,21.10
2021,08,14,10,27,21.10
2021,08,14,10,28,20.90
2021,08,14,10,29,20.70
2021,08,14,10,30,20.60
2021,08,14,10,31,20.40
2021,08,14,10,32,20.30
2021,08,14,10,33,20.30
2021,08,14,10,34,20.30
2021,08,14,10,35,20.30
2021,08,14,10,36,20.30
2021,08,14,10,37,20.30
2021,08,14,10,38,20.30
2021,08,14,10,39,20.30
2021,08,14,10,40,20.30
2021,08,14,10,41,20.30
2021,08,14,10,42,20.40
2021,08,14,10,43,20.40
2021,08,14,10,44,20.40
2021,08,14,10,45,20.40
2021,08,14,10,46,20.40
2021,08,14,10,47,20.40
2021,08,14,10,48,20.40
2021,08,14,10,49,20.40
2021,08,14,10,50,20.50
2021,08,14,10,51,20.50
2021,08,14,10,52,20.50
2021,08,14,10,53,20.50
2021,08,14,10,54,20.40
2021,08,14,10,55,20.40
2021,08,14,10,56,20.30
2021,08,14,10,57,20.20
2021,08,14,10,58,20.10
2021,08,14,10,59,20.10
2021,08,14,11,00,20.00
2021,08,14,11,01,19.90
2021,08,14,11,02,19.90
2021,08,14,11,03,19.80
2021,08,14,11,04,19.70
2021,08,14,11,05,19.70
2021,08,14,11,06,19.70
2021,08,14,11,07,19.70
2021,08,14,11,08,19.70
2021,08,14,11,09,19.70
2021,08,14,11,10,19.70
2021,08,14,11,11,19.80
2021,08,14,11,12,19.80
2021,08,14,11,13,19.80
2021,08,14,11,14,19.90
2021,08,14,11,15,19.90
2021,08,14,11,16,20.00
2021,08,14,11,17,20.10
2021,08,14,11,18,20.10
2021,08,14,11,19,20.20
2021,08,14,11,20,20.30
2021,08,14,11,21,20.40
2021,08,14,11,22,20.40
2021,08,14,11,23,20.50
2021,08,14,11,24,20.50
2021,08,14,11,25,20.60
2021,08,14,11,26,20.60
2021,08,14,11,27,20.60
2021,08,14,11,28,20.70
2021,08,14,11,29,20.80
2021,08,14,11,30,20.80
2021,08,14,11,31,20.90
2021,08,14,11,32,21.00
2021,08,14,11,33,21.00
2021,08,14,11,34,21.00
2021,08,14,11,35,21.00
2021,08,14,11,36,21.00
2021,08,14,11,37,21.00
2021,08,14,11,38,21.00
2021,08,14,11,39,21.00
2021,08,14,11,40,21.00
2021,08,14,11,41,21.00
2021,08,14,11,42,21.00
2021,08,14,11,43,20.90
2021,08,14,11,44,20.90
2021,08,14,11,45,20.90
2021,08,14,11,46,20.90
2021,08,14,11,47,20.90
2021,08,14,11,48,20.80
2021,08,14,11,49,20.80
2021,08,14,11,50,20.70
2021,08,14,11,51,20.70
2021,08,14,11,52,20.70
2021,08,14,11,53,20.80
2021,08,14,11,54,20.80
2021,08,14,11,55,20.80
2021,08,14,11,56,20.80
2021,08,14,11,57,20.80
2021,08,14,11,58,20.80
2021,08,14,11,59,20.80
2021,08,14,12,00,20.80
2021,08,14,12,01,20.80
2021,08,14,12,02,20.80
2021,08,14,12,03,20.80
2021,08,14,12,04,20.90
2021,08,14,12,05,20.90
2021,08,14,12,06,21.00
2021,08,14,12,07,21.00
2021,08,14,12,08,21.10
2021,08,14,12,09,21.10
2021,08,14,12,10,21.20
2021,08,14,12,11,21.30
2021,08,14,12,12,21.30
2021,08,14,12,13,21.40
2021,08,14,12,14,21.40
2021,08,14,12,15,21.40
2021,08,14,12,16,21.40
2021,08,14,12,17,21.50
2021,08,14,12,18,21.50
2021,08,14,12,19,21.40
2021,08,14,12,20,21.40
2021,08,14,12,21,21.40
2021,08,14,12,22,21.40
2021,08,14,12,23,21.50
2021,08,14,12,24,21.60
2021,08,14,12,25,21.60
2021,08,14,12,26,21.70
2021,08,14,12,27,21.70
2021,08,14,12,28,21.80
2021,08,14,12,29,21.80
2021,08,14,12,30,21.80
2021,08,14,12,31,21.90
2021,08,14,12,32,21.90
2021,08,14,12,33,21.90
2021,08,14,12,34,21.90
2021,08,14,12,35,21.90
2021,08,14,12,36,21.90
2021,08,14,12,37,21.90
2021,08,14,12,38,21.90
2021,08,14,12,39,21.90
2021,08,14,12,40,22.00
2021,08,14,12,41,22.00
2021,08,14,12,42,22.10
2021,08,14,12,43,22.10
2021,08,14,12,44,22.20
2021,08,14,12,45,22.20
2021,08,14,12,46,22.30
2021,08,14,12,47,22.30
2021,08,14,12,48,22.30
2021,08,14,12,49,22.30
2021,08,14,12,50,22.30
2021,08,14,12,51,22.30
2021,08,14,12,52,22.40
2021,08,14,12,53,22.40
2021,08,14,12,54,22.40
2021,08,14,12,55,22.50
2021,08,14,12,56,22.50
2021,08,14,12,57,22.60
2021,08,14,12,58,22.70
2021,08,14,12,59,22.70
2021,08,14,13,00,22.70
2021,08,14,13,01,22.80
2021,08,14,13,02,22.80
2021,08,14,13,03,22.80
2021,08,14,13,04,22.80
2021,08,14,13,05,22.80
2021,08,14,13,06,22.90
2021,08,14,13,07,22.90
2021,08,14,13,08,22.90
2021,08,14,13,09,22.90
2021,08,14,13,10,22.90
2021,08,14,13,11,22.90
2021,08,14,13,12,22.90
2021,08,14,13,13,22.90
2021,08,14,13,14,23.00
2021,08,14,13,15,23.00
2021,08,14,13,16,23.10
2021,08,14,13,17,23.10
2021,08,14,13,18,23.20
2021,08,14,13,19,23.20
2021,08,14,13,20,23.30
2021,08,14,13,21,23.40
2021,08,14,13,22,23.40
2021,08,14,13,23,23.40
2021,08,14,13,24,23.50
2021,08,14,13,25,23.40
2021,08,14,13,26,23.40
2021,08,14,13,27,23.50
2021,08,14,13,28,23.60
2021,08,14,13,29,23.70
2021,08,14,13,30,23.70
2021,08,14,13,31,23.80
2021,08,14,13,32,23.80
2021,08,14,13,33,23.90
2021,08,14,13,34,23.90
2021,08,14,13,35,23.90
2021,08,14,13,36,24.00
2021,08,14,13,37,24.00
2021,08,14,13,38,24.00
2021,08,14,13,39,23.90
2021,08,14,13,40,23.90
2021,08,14,13,41,23.90
2021,08,14,13,42,23.90
2021,08,14,13,43,23.90
2021,08,14,13,44,23.90
2021,08,14,13,45,23.90
2021,08,14,13,46,24.00
2021,08,14,13,47,24.00
2021,08,14,13,48,24.10
2021,08,14,13,49,24.10
2021,08,14,13,50,24.10
2021,08,14,13,51,24.10
2021,08,14,13,52,24.10
2021,08,14,13,53,24.10
2021,08,14,13,54,24.10
2021,08,14,13,55,24.10
2021,08,14,13,56,24.10
2021,08,14,13,57,24.10
2021,08,14,13,58,24.10
2021,08,14,13,59,24.00
2021,08,14,14,00,24.00
2021,08,14,14,01,24.00
2021,08,14,14,02,23.90
2021,08,14,14,03,23.80
2021,08,14,14,04,23.70
2021,08,14,14,05,23.60
2021,08,14,14,06,23.50
2021,08,14,14,07,23.50
2021,08,14,14,08,23.40
2021,08,14,14,09,23.40
2021,08,14,14,10,23.40
2021,08,14,14,11,23.50
2021,08,14,14,12,23.50
2021,08,14,14,13,23.50
2021,08,14,14,14,23.50
2021,08,14,14,15,23.60
2021,08,14,14,16,23.60
2021,08,14,14,17,23.70
2021,08,14,14,18,23.80
2021,08,14,14,19,23.90
2021,08,14,14,20,24.00
2021,08,14,14,21,24.10
2021,08,14,14,22,24.20
2021,08,14,14,23,24.30
2021,08,14,14,24,24.40
2021,08,14,14,25,24.50
2021,08,14,14,26,24.50
2021,08,14,14,27,24.60
2021,08,14,14,28,24.60
2021,08,14,14,29,24.70
2021,08,14,14,30,24.70
2021,08,14,14,31,24.70
2021,08,14,14,32,24.70
2021,08,14,14,33,24.70
2021,08,14,14,34,24.70
2021,08,14,14,35,24.70
2021,08,14,14,36,24.60
2021,08,14,14,37,24.60
2021,08,14,14,38,24.60
2021,08,14,14,39,24.60
2021,08,14,14,40,24.60
2021,08,14,14,41,24.60
2021,08,14,14,42,24.60
2021,08,14,14,43,24.60
2021,08,14,14,44,24.70
2021,08,14,14,45,24.70
2021,08,14,14,46,24.70
2021,08,14,14,47,24.70
2021,08,14,14,48,24.70
2021,08,14,14,49,24.80
2021,08,14,14,50,24.80
2021,08,14,14,51,24.80
2021,08,14,14,52,24.80
2021,08,14,14,53,24.80
2021,08,14,14,54,24.80
2021,08,14,14,55,24.80
2021,08,14,14,56,24.80
2021,08,14,14,57,24.80
2021,08,14,14,58,24.70
2021,08,14,14,59,24.70
2021,08,14,15,00,24.70
2021,08,14,15,01,24.70
2021,08,14,15,02,24.70
2021,08,14,15,03,24.60
2021,08,14,15,04,24.60
2021,08,14,15,05,24.60
2021,08,14,15,06,24.60
2021,08,14,15,07,24.50
2021,08,14,15,08,24.50
2021,08,14,15,09,24.40
2021,08,14,15,10,24.40
2021,08,14,15,11,24.40
2021,08,14,15,12,24.40
2021,08,14,15,13,24.50
2021,08,14,15,14,24.50
2021,08,14,15,15,24.60
2021,08,14,15,16,24.60
2021,08,14,15,17,24.60
2021,08,14,15,18,24.60
2021,08,14,15,19,24.60
2021,08,14,15,20,24.50
2021,08,14,15,21,24.40
2021,08,14,15,22,24.40
2021,08,14,15,23,24.40
2021,08,14,15,24,24.40
2021,08,14,15,25,24.50
2021,08,14,15,26,24.50
2021,08,14,15,27,24.50
2021,08,14,15,28,24.50
2021,08,14,15,29,24.50
2021,08,14,15,30,24.40
2021,08,14,15,31,24.30
2021,08,14,15,32,24.20
2021,08,14,15,33,24.10
2021,08,14,15,34,24.10
2021,08,14,15,35,24.00
2021,08,14,15,36,23.90
2021,08,14,15,37,23.90
2021,08,14,15,38,23.80
2021,08,14,15,39,23.80
2021,08,14,15,40,23.70
2021,08,14,15,41,23.70
2021,08,14,15,42,23.60
2021,08,14,15,43,23.60
2021,08,14,15,44,23.50
2021,08,14,15,45,23.40
2021,08,14,15,46,23.30
2021,08,14,15,47,23.20
2021,08,14,15,48,23.10
2021,08,14,15,49,23.10
2021,08,14,15,50,23.10
2021,08,14,15,51,23.10
2021,08,14,15,52,23.10
2021,08,14,15,53,23.10
2021,08,14,15,54,23.10
2021,08,14,15,55,23.10
2021,08,14,15,56,23.20
2021,08,14,15,57,23.20
2021,08,14,15,58,23.20
2021,08,14,15,59,23.20
2021,08,14,16,00,23.20
2021,08,14,16,01,23.30
2021,08,14,16,02,23.30
2021,08,14,16,03,23.30
2021,08,14,16,04,23.30
2021,08,14,16,05,23.40
2021,08,14,16,06,23.40
2021,08,14,16,07,23.40
2021,08,14,16,08,23.40
2021,08,14,16,09,23.40
2021,08,14,16,10,23.40
2021,08,14,16,11,23.30
2021,08,14,16,12,23.30
2021,08,14,16,13,23.30
2021,08,14,16,14,23.30
2021,08,14,16,15,23.30
2021,08,14,16,16,23.20
2021,08,14,16,17,23.20
2021,08,14,16,18,23.20
2021,08,14,16,19,23.20
2021,08,14,16,20,23.20
2021,08,14,16,21,23.30
2021,08,14,16,22,23.30
2021,08,14,16,23,23.20
2021,08,14,16,24,23.10
2021,08,14,16,25,23.10
2021,08,14,16,26,23.10
2021,08,14,16,27,23.10
2021,08,14,16,28,23.20
2021,08,14,16,29,23.20
2021,08,14,16,30,23.20
2021,08,14,16,31,23.10
2021,08,14,16,32,23.10
2021,08,14,16,33,23.10
2021,08,14,16,34,23.00
2021,08,14,16,35,23.00
2021,08,14,16,36,22.90
2021,08,14,16,37,23.00
2021,08,14,16,38,22.90
2021,08,14,16,39,22.80
2021,08,14,16,40,22.70
2021,08,14,16,41,22.60
2021,08,14,16,42,22.50
2021,08,14,16,43,22.50
2021,08,14,16,44,22.50
2021,08,14,16,45,22.60
2021,08,14,16,46,22.60
2021,08,14,16,47,22.70
2021,08,14,16,48,22.80
2021,08,14,16,49,22.90
2021,08,14,16,50,23.00
2021,08,14,16,51,23.10
2021,08,14,16,52,23.20
2021,08,14,16,53,23.40
2021,08,14,16,54,23.60
2021,08,14,16,55,23.90
2021,08,14,16,56,24.20
2021,08,14,16,57,24.50
2021,08,14,16,58,24.90
2021,08,14,16,59,25.20
2021,08,14,17,00,25.40
2021,08,14,17,01,25.50
2021,08,14,17,02,25.70
2021,08,14,17,03,25.80
2021,08,14,17,04,25.90
2021,08,14,17,05,26.00
2021,08,14,17,06,26.20
2021,08,14,17,07,26.30
2021,08,14,17,08,26.40
2021,08,14,17,09,26.50
2021,08,14,17,10,26.50
2021,08,14,17,11,26.60
2021,08,14,17,12,26.70
2021,08,14,17,13,26.80
2021,08,14,17,14,26.80
2021,08,14,17,15,26.90
2021,08,14,17,16,27.00
2021,08,14,17,17,27.10
2021,08,14,17,18,27.10
2021,08,14,17,19,27.10